Regional Weather Roundup
Issued by NWS San Angelo, TX

Home | Current Version | Previous Version | Graphics & Text | Print | Product List | Glossary Off
Versions: 1 2 3 4 5 6 7 8 9 10 11 12 13 14 15 16 17 18 19 20 21 22 23 24 25 26 27 28 29 30 31 32 33 34 35 36 37 38 39 40 41 42 43 44 45 46 47 48 49 50

000
ASUS44 KSJT 202258
RWRSJT
WEST CENTRAL TEXAS REGIONAL WEATHER ROUNDUP
NATIONAL WEATHER SERVICE SAN ANGELO TX
600 PM CDT MON OCT 20 2014

NOTE: "FAIR" INDICATES FEW OR NO CLOUDS BELOW 12,000 FEET WITH NO
SIGNIFICANT WEATHER AND/OR OBSTRUCTIONS TO VISIBILITY.

TXZ049-054-064>066-071>073-076>078-098-099-113-114-127-128-139-140-
154-155-168>170-210000
...LOCATIONS ACROSS WEST CENTRAL TEXAS...

CITY           SKY/WX    TMP DP  RH WIND       PRES   REMARKS
SAN ANGELO     MOSUNNY   80  52  37 E12       30.01S
ABILENE        MOSUNNY   79  53  40 SE8       30.02S
DYESS AFB      NOT AVBL
JUNCTION       SUNNY     78  53  41 E7        30.01S
SWEETWATER     NOT AVBL
BROWNWOOD      NOT AVBL
COLEMAN        NOT AVBL
SONORA         NOT AVBL
OZONA          NOT AVBL
BRADY          NOT AVBL
$$

TEXAS PANHANDLE/OKLAHOMA PANHANDLE

CITY           SKY/WX    TMP DP  RH WIND       PRES   REMARKS
AMARILLO       NOT AVBL
BORGER         SUNNY     79  49  34 NE5       30.05F
CANADIAN       NOT AVBL
DALHART        NOT AVBL
DUMAS          NOT AVBL
GUYMON         NOT AVBL
HEREFORD       NOT AVBL
PAMPA          NOT AVBL
PERRYTON       NOT AVBL
$$

SOUTHERN PANHANDLE/SOUTH PLAINS/ROLLING PLAINS

CITY           SKY/WX    TMP DP  RH WIND       PRES   REMARKS
LUBBOCK        MOSUNNY   74  53  48 SE10      30.06S
SNYDER         NOT AVBL
CHILDRESS      SUNNY     83  53  35 SE7       30.01S
SEMINOLE       NOT AVBL
$$

PERMIAN BASIN

CITY           SKY/WX    TMP DP  RH WIND       PRES   REMARKS
MIDLAND        CLOUDY    76  53  44 E13       30.03F
ODESSA         CLOUDY    74  51  44 SE12      30.04F
WINK           LGT RAIN  67  64  90 SW5       30.03R
$$

FAR WEST/SOUTHWEST MOUNTAINS/TRANS PECOS

CITY           SKY/WX    TMP DP  RH WIND       PRES   REMARKS
ALPINE         NOT AVBL
DRYDEN           N/A     74  61  63 SE12      29.99S
EL PASO        PTSUNNY   72  51  47 SE10      30.00F
FORT STOCKTON  CLOUDY    66  61  82 SE8       30.04F
GUADALUPE PASS CLOUDY    59  54  83 E14       30.14R
MARFA          NOT AVBL
PECOS          NOT AVBL
$$

DALLAS/FORT WORTH METROPLEX

CITY           SKY/WX    TMP DP  RH WIND       PRES   REMARKS
DFW AIRPORT    MOCLDY    80  59  48 SE6       30.00S
FTW MEACHAM    PTCLDY    81  57  43 SE9       30.00S
DAL-EXECUTIVE  PTCLDY    80  58  46 SE8       30.01S
GRAND PRAIRIE  CLEAR     81  59  47 MISG      30.02S
ADDISON        NOT AVBL
MESQUITE       CLEAR     79  57  47 E3        30.01F
LANCASTER      NOT AVBL
$$

NORTH CENTRAL TEXAS

CITY           SKY/WX    TMP DP  RH WIND       PRES   REMARKS
SHRMAN/DENISON NOT AVBL
GAINESVILLE    NOT AVBL
BRIDGEPORT     NOT AVBL
DENTON         CLEAR     79  58  48 E7        30.00S
WAXAHACHIE     NOT AVBL
GRANBURY       NOT AVBL
$$

WESTERN NORTH TEXAS

CITY           SKY/WX    TMP DP  RH WIND       PRES   REMARKS
WICHITA FALLS  PTCLDY    78  59  51 S8        29.99S
VERNON         NOT AVBL
BRECKENRIDGE   NOT AVBL
COMANCHE       NOT AVBL
$$

CENTRAL AND SOUTH CENTRAL TEXAS

CITY           SKY/WX    TMP DP  RH WIND       PRES   REMARKS
AUSTIN/BERGSTM PTSUNNY   77  59  53 E8        29.99S
WACO           CLEAR     79  58  48 E5        30.00S
HILLSBORO      NOT AVBL
TEMPLE         NOT AVBL
KILLEEN-GRAY   NOT AVBL
FORT HOOD      NOT AVBL
GEORGETOWN     SUNNY     81  57  44 MISG      30.00S
LAGO VISTA     NOT AVBL
SAN MARCOS     SUNNY     79  55  44 E13       30.00S
NEW BRAUNFELS  PTSUNNY   81  57  43 NE13      29.97F
RANDOLPH AFB   NOT AVBL
SAN ANTONIO    PTSUNNY   81  58  45 E12       29.98S
STINSON        MOSUNNY   83  57  41 E7        29.95F
PLEASANTON     NOT AVBL
LA GRANGE      NOT AVBL
GIDDINGS       NOT AVBL
$$

EAST TEXAS

CITY           SKY/WX    TMP DP  RH WIND       PRES   REMARKS
PARIS          NOT AVBL
CLARKSVILLE    NOT AVBL
TYLER          CLEAR     78  54  43 NE6       30.02S
LONGVIEW       CLEAR     76  54  46 CALM      30.02S
PALESTINE      NOT AVBL
NACOGDOCHES    NOT AVBL
$$

TEXAS HILL COUNTRY AND EDWARDS PLATEAU

CITY           SKY/WX    TMP DP  RH WIND       PRES   REMARKS
LLANO          NOT AVBL
HORSESHOE BAY  NOT AVBL
KERRVILLE      NOT AVBL
FREDERICKSBRG  NOT AVBL
ROCKSPRINGS    NOT AVBL
HONDO          PTSUNNY   78  55  44 E9        29.99S
UVALDE         NOT AVBL
DEL RIO        PTSUNNY   79  63  57 S7        29.96S
$$

SOUTHEAST TEXAS

CITY           SKY/WX    TMP DP  RH WIND       PRES   REMARKS
COLLEGE STN    CLEAR     78  59  51 NE7       30.00S
CALDWELL       NOT AVBL
CROCKETT       NOT AVBL
BRENHAM        NOT AVBL
HUNTSVILLE     CLEAR     78  59  51 E3        30.00S
CONROE         CLEAR     77  59  53 CALM      30.00S
HOUSTON BUSH   PTCLDY    78  58  49 NE6       29.99S
HOUSTON HOBBY  PTCLDY    78  62  57 E6        29.98S
PERLAND        CLEAR     80  62  54 E6        30.00S
WHARTON        NOT AVBL
$$

THE UPPER TEXAS COAST

CITY           SKY/WX    TMP DP  RH WIND       PRES   REMARKS
ORANGE         NOT AVBL
PORT ARTHUR    CLEAR     78  57  48 N9        29.98S
GALVESTON      CLEAR     77  67  71 E7        29.99S
ANGLETON       CLEAR     76  67  73 E6        29.98S
BAY CITY       NOT AVBL
$$

TEXAS COASTAL BEND, RIO GRANDE PLAINS DEEP SOUTH TEXAS

CITY           SKY/WX    TMP DP  RH WIND       PRES   REMARKS
VICTORIA       PTSUNNY   81  63  54 NE9       29.96S
BEEVILLE       NOT AVBL
ROCKPORT       CLOUDY    78  70  76 E13       29.95S
PORT ARANSAS   NOT AVBL
PORT LAVACA    NOT AVBL
CORPUS CHRISTI PTSUNNY   74  70  87 N7        29.95S
KINGSVILLE NAS NOT AVBL
COTULLA        PTSUNNY   85  61  44 SE20      29.94R
LAREDO         NOT AVBL
BROWNSVILLE    MOSUNNY   83  69  62 NE9       29.89R
PORT ISABEL    SUNNY     82  69  64 NE10      29.89S
HEBBRONVILLE   NOT AVBL
MCALLEN        CLOUDY    81  68  64 NE6       29.90R
WESLACO        NOT AVBL
FALFURRIAS     NOT AVBL
EDINBURG       NOT AVBL
$$



USA.gov is the U.S. government's official web portal to all federal, state and local government web resources and services.